Location: Unspecified
(48.5670°N, 0.0000°E)
Time: 11:56:58
(UTC+00:00)

Tiros 1 - Pass Details

Date: 29 October 2020
Orbit: 630 x 664 km, 48.4° (Epoch: 03 December)

Event Time Altitude Azimuth Distance (km) Brightness Sun altitude
Exits shadow 04:36:53 51° 229° (SW) 793 7.2 -21.2°
Maximum altitude 04:37:55 71° 165° (SSE) 667 7.1 -21.0°
Drops below altitude 10° 04:42:31 10° 81° (E) 2,010 10.9 -20.2°
Sets 04:44:51 0° 80° (E) 2,920 12.1 -19.9°
